Welcome to the New NWS' Forecast!
Most changes are behind the scenes, but click here for differences you might notice.
Latest weather observations around

Hot Springs, Memorial Field Airport (KHOT)

Using English Units (Switch to International System of Units)
Date/ Time (CDT) Wind (mph) Vis. (mi) Weather Sky Cond. Temp (°F) Rel. Humidity Wind Chill (°F) Heat Index (°F) Pressure Precip. (in)
Air Dwpt 6 hour Altimeter (inHg) Sea level (inHg) 1 hr 3 hr 6 hr
Max Min
May 24 21:53 Calm 10 Clear CLR 59 50     72%     29.71 29.7      
May 24 20:53 W 3 10 Clear CLR 62 49     62%     29.7 29.69      
May 24 19:53 W 5 10 Clear CLR 65 49     56%     29.69 29.68      
May 24 18:53 W 10 10 Mostly Cloudy SCT050 BKN085 66 49     54%     29.68 29.67      
May 24 17:53 WNW 9 10 Cloudy BKN055 OVC085 67 47     49%     29.68 29.67      
May 24 16:53 WNW 11 10 Cloudy SCT050 OVC090 67 47     49%     29.68 29.67      
May 24 15:53 WNW 11 10 Mostly Cloudy FEW050 BKN085 68 47     47%     29.68 29.67      
May 24 14:53 NW 9 10 Partly Cloudy FEW050 FEW070 SCT085 71 48     44%   70 29.68 29.67      
May 24 13:53 NW 8 10 Cloudy FEW047 SCT060 OVC085 68 46     45%     29.69 29.67      
May 24 12:53 WNW 8 10 Mostly Cloudy FEW049 FEW065 BKN080 69 48     47%     29.69 29.67      
May 24 11:53 WNW 10 10 Mostly Clear FEW070 67 48     51%     29.69 29.68      
May 24 08:53 NNW 11 10 Clear CLR 61 50     67%     29.69 29.68      
May 24 07:53 NW 8 10 Clear CLR 59 49     69%     29.69 29.68      
May 24 06:53 5 10 Clear CLR 57 50     77%     29.68 29.67      
May 24 05:53 NNW 6 10 Clear CLR 57 51     81%     29.67 29.66      
May 24 04:53 WNW 6 10 Clear CLR 58 51     78%     29.68 29.66      
May 24 03:53 W 5 10 Clear CLR 58 54     87%     29.69 29.67      
May 24 02:53 W 3 10 Clear CLR 60 55     83%     29.7 29.68      
May 24 01:53 WSW 5 10 Clear CLR 60 57     90%     29.73 29.71      
May 24 00:53 NW 3 10 Cloudy OVC110 61 58     90%     29.75 29.73     0
May 23 23:53 NW 3 10 Cloudy OVC100 61 58     90%     29.76 29.75 0    
May 23 22:53 NW 5 10 Light Rain SCT070 OVC100 64 57     78%     29.76 29.75 0    
May 23 21:53 7 10 Cloudy SCT060 BKN070 OVC100 67 55     66%     29.74 29.73      
May 23 20:53 NNW 9 10 Partly Cloudy FEW060 SCT120 69 55     61%     29.74 29.72      
May 23 19:53 6 10 Partly Cloudy FEW047 SCT110 71 57     61%   71 29.73 29.71      
May 23 18:53 W 5 10 Clear CLR 72 57     59%   72 29.72 29.71      
May 23 17:53 WNW 7 10 Mostly Cloudy BKN110 73 56     55%   73 29.72 29.71      
May 23 16:53 WNW 11 10 Clear CLR 77 56     48%   77 29.72 29.71      
May 23 15:53 WNW 13 10 Clear CLR 78 55     45%   78 29.74 29.72      
May 23 14:53 WNW 9 10 Clear CLR 78 57     48%   78 29.76 29.75      
May 23 13:53 7 10 Partly Cloudy SCT037 76 59     56%   76 29.79 29.77      
May 23 12:53 WNW 7 10 Mostly Cloudy BKN110 72 61     68%   72 29.8 29.79      
May 23 11:53 WNW 8 10 Cloudy OVC110 70 60     71%     29.82 29.81      
May 23 10:53 W 7 10 Cloudy OVC110 71 60     68%   71 29.83 29.81      
May 23 09:53 WNW 7 10 Clear CLR 69 61     75%     29.83 29.82      
May 23 08:53 WNW 5 10 Clear CLR 64 60     87%     29.84 29.83      
May 23 07:53 W 5 10 Mostly Cloudy BKN120 62 58     86%     29.85 29.84      
May 23 06:53 WNW 5 10 Clear CLR 59 57     93%     29.85 29.83      
May 23 05:53 W 5 10 Clear CLR 58 57     97%     29.84 29.83      
May 23 04:53 Calm 10 Mostly Cloudy BKN110 60 58     93%     29.83 29.81      
May 23 03:53 3 10 Clear CLR 60 57     90%     29.85 29.84      
May 23 02:53 W 5 10 Clear CLR 59 58     96%     29.89 29.88      
May 23 01:53 NW 3 10 Mostly Clear FEW120 60 59     96%     29.89 29.88      
May 23 00:53 Calm 10 Clear CLR 60 57     90%     29.9 29.89      
May 22 23:53 Calm 10 Clear CLR 61 57     87%     29.93 29.92      
May 22 22:53 Calm 10 Mostly Cloudy BKN065 64 57     78%     29.95 29.93      
May 22 21:53 Calm 10 Cloudy FEW060 OVC090 66 56     70%     29.95 29.94      
May 22 20:53 SE 3 10 Cloudy FEW070 OVC090 67 54     63%     29.95 29.94      
May 22 19:53 S 5 10 Cloudy SCT070 OVC095 67 55     66%     29.96 29.95      
May 22 18:53 S 5 10 Cloudy OVC080 68 55     63%     29.97 29.96      
May 22 17:53 SSE 7 10 Cloudy BKN075 OVC100 70 55     59%     29.98 29.96      
May 22 16:53 7 10 Partly Cloudy SCT110 72 54     53%   71 29.99 29.97      
May 22 15:53 SE 9 10 Mostly Cloudy BKN120 72 53     51%   71 30.01 29.99      
May 22 14:53 SE 9 10 Cloudy OVC095 70 53     55%     30.04 30.03      
May 22 13:53 SE 8 10 Mostly Cloudy BKN110 73 51     46%   72 30.05 30.03      
May 22 12:53 ESE 10 10 Mostly Clear FEW120 73 49     43%   72 30.07 30.05      
May 22 11:53 E 10 10 Clear CLR 72 49     44%   71 30.09 30.08      
May 22 10:53 E 11 10 Clear CLR 70 50     49%     30.11 30.1      
May 22 09:53 ESE 8 10 Clear CLR 66 51     59%     30.13 30.11      
May 22 08:53 E 5 10 Clear CLR 63 52     67%     30.13 30.12      
May 22 06:53 SE 3 10 Clear CLR 59 55     87%     30.14 30.13      
May 22 05:53 WNW 5 10 Clear CLR 60 54     80%     30.13 30.11      
May 22 04:53 N 3 10 Clear CLR 60 57     90%     30.14 30.13      
May 22 03:53 NW 3 10 Clear CLR 60 56     86%     30.13 30.11      
May 22 02:53 Calm 10 Clear CLR 60 57     90%     30.12 30.1      
May 22 01:53 Calm 10 Clear CLR 61 54     78%     30.12 30.1      
May 22 00:53 Calm 10 Clear CLR 62 55     78%     30.12 30.1      
May 21 23:53 Calm 10 Clear CLR 63 54     72%     30.14 30.13      
May 21 22:53 E 3 10 Clear CLR 64 52     65%     30.14 30.12      
Notice The following observation data may not be complete
May 21 21:53 NNE 5 10 Clear CLR   48      %     30.13 30.11      
May 21 20:53 Calm 10 Clear CLR 70 51     51%     30.12 30.1      
May 21 19:53 N 3 10 Clear CLR 72 52     49%   71 30.1 30.09      
May 21 18:53 NNE 5 10 Clear CLR 75 51     43%   74 30.08 30.06      
May 21 17:53 N 7 10 Clear CLR 78 50     37%   77 30.09 30.07      
May 21 16:53 NNW 6 10 Clear CLR 79 49     35%   78 30.08 30.06      
May 21 15:53 6 10 Clear CLR 79 49     35%   78 30.08 30.06      
May 21 14:53 W 6 10 Clear CLR 79 48     34%   78 30.11 30.09      
May 21 13:53 7 10 Clear CLR 79 49     35%   78 30.13 30.11      
May 21 12:53 5 10 Clear CLR 76 49     39%   75 30.15 30.13      
May 21 11:53 WNW 9 10 Clear CLR 74 47     38%   73 30.15 30.14      
May 21 10:53 NW 8 10 Clear CLR 72 49     44%   71 30.15 30.13      
May 21 09:53 3 10 Clear CLR 71 48     44%   70 30.15 30.13      
May 21 08:53 NNW 3 10 Clear CLR 68 52     57%     30.15 30.13      
May 21 07:53 Calm 10 Clear CLR 66 53     63%     30.13 30.12      
May 21 06:53 Calm 10 Clear CLR 61 58     90%     30.12 30.11      
May 21 05:53 W 3 10 Mostly Clear FEW080 61 58     90%     30.09 30.07      
May 21 04:53 Calm 10 Cloudy OVC090 62 60     93%     30.09 30.07      
May 21 03:53 3 10 Mostly Clear FEW095 63 60     90%     30.07 30.06      
May 21 02:53 NW 3 10 Mostly Cloudy BKN085 65 60     84%     30.05 30.03      
May 21 01:53 W 3 10 Mostly Clear FEW080 66 60     81%     30.05 30.03      
May 21 00:53 6 10 Cloudy OVC085 67 62     84%     30.03 30.01     0
May 20 23:53 WNW 6 10 Cloudy FEW034 OVC085 68 64     87%     30.03 30.01      
May 20 22:53 5 10 Cloudy FEW023 BKN035 OVC090 69 65     87%     30.03 30.01 0    
May 20 21:53 NNW 9 10 Light Rain OVC018 70 67     90%     30 29.98 0 0  
May 20 21:27 NW 5 10 Cloudy FEW014 BKN019 OVC045 72 69     91%   73 29.97   0    
May 20 20:53 Calm 10 Mostly Cloudy FEW050 BKN080 73 68     84%   74 29.95 29.93      
May 20 19:53 Calm 10 Cloudy SCT030 SCT044 OVC065 75 68     79%   76 29.95 29.93      
May 20 18:53 SE 5 10 Mostly Cloudy BKN034 BKN048 BKN060 75 68     79%   76 29.94 29.92      
May 20 17:53 S 6 10 Mostly Clear FEW036 FEW045 76 67     74%   77 29.93 29.91      
May 20 16:53 SE 5 10 Mostly Clear FEW027 75 67     76%   76 29.9 29.88      
May 20 16:28 ESE 7 10 Partly Cloudy FEW021 SCT028 75 67     76%   76 29.9        
May 20 15:53 SSE 9 10 Mostly Cloudy FEW020 BKN027 75 67     76%   76 29.93 29.91      
May 20 15:48 SSE 9 10 Mostly Cloudy FEW020 BKN025 75 66     74%   76 29.93        
May 20 14:16 SE 5 10 Mostly Cloudy BKN021 BKN031 73 66     79%   74 29.93        
May 20 13:53 5 10 Partly Cloudy SCT017 SCT060 73 65     76%   74 29.94 29.92      
May 20 12:53 SSW 8 10 Mostly Cloudy BKN015 72 66     82%   73 29.98 29.96     1
May 20 12:46 S 6 10 Mostly Cloudy BKN015 72 65     79%   73 29.97        
May 20 11:53 ESE 8 10 Mostly Cloudy BKN011 70 65     84%     29.96 29.94 0    
May 20 11:28 ESE 7 10 Cloudy OVC011 69 65     87%     29.98   0    
May 20 10:53 E 7 10 Light Rain BKN008 68 66     93%     29.95 29.93 0    
May 20 10:21 E 9 10 Light Rain BKN008 BKN042 67 65     93%     29.95   0    
May 20 10:13 E 11 10 Light Rain SCT007 BKN043 68 66     93%     29.94   0    
May 20 09:53 E 8 10 Mostly Cloudy BKN006 BKN050 BKN080 67 66     97%     29.95 29.93 0 1  
May 20 09:39 E 6 10 Mostly Cloudy BKN006 BKN095 67 66     97%     29.97   0    
May 20 09:16 E 10 10 Light Rain FEW005 BKN095 OVC110 66 65     96%     29.96   0    
May 20 08:53 E 8 7 Light Rain FEW050 SCT075 OVC100 65 65     100%     29.96 29.94 0    
May 20 08:32 Calm 2.5 Rain and Fog/Mist FEW004 BKN047 OVC060 65 65     100%     29.97   0    
May 20 08:29 Calm 2.5 Light Rain and Fog/Mist BKN047 OVC060 65 65     100%     29.98   0    
May 20 08:18 Calm 1 Thunderstorms and Rain and Fog/Mist FEW012 OVC041 65 65     100%     29.97   0    
May 20 08:11 W 6 0.75 Heavy Rain and Fog/Mist FEW010 OVC036 65 65     100%     29.98   0    
May 20 07:53 Calm 1.5 Thunderstorms and Rain and Fog/Mist FEW007 BKN038 OVC060 66 66     100%     29.97 29.95 0    
May 20 07:34 Calm 1 Thunderstorms and Rain and Fog/Mist FEW009 BKN032 OVC055 66 66     100%     29.96   0    
May 20 07:22 NW 8 1.5 Thunderstorms and Heavy Rain and Fog/Mist FEW014 BKN024 OVC049 66 65     96%     29.95   0    
May 20 07:19 NW 10 2 Light Rain and Fog/Mist SCT016 BKN024 OVC030 67 65     93%     29.96   0    
May 20 06:53 SSW 6 10 Cloudy BKN016 OVC023 76 73     91%   77 29.92 29.9      
May 20 05:53 SSW 7 10 Cloudy OVC015 76 73     91%   77 29.9 29.88      
May 20 04:53 S 5 10 Cloudy BKN018 OVC025 76 73     91%   77 29.88 29.86      
Notice The following observation data may not be complete
May 20 04:13   10 Mostly Cloudy BKN021 BKN026          %              
May 20 03:53 6 10 Mostly Clear FEW021 77 73     88%   79 29.87 29.85      
May 20 02:53 SSW 9 10 Clear CLR 77 73     88%   79 29.86 29.83      
May 20 01:53 SSE 8 10 Partly Cloudy FEW043 SCT050 SCT075 76 74     94%   78 29.86 29.83      
May 20 01:05 S 5 10 Partly Cloudy FEW044 SCT100 76 74     94%   78 29.86        
May 20 00:53 SSE 6 10 Mostly Cloudy FEW044 SCT055 BKN100 76 74     94%   78 29.86 29.84     0
May 20 00:45 SSE 7 10 Partly Cloudy FEW042 SCT100 76 74     94%   78 29.86        
May 20 00:22 ESE 5 10 Partly Cloudy FEW050 SCT060 76 74     94%   78 29.87        
May 20 00:11 ESE 6 10 Mostly Cloudy BKN060 76 74     94%   78 29.87        
May 19 23:53 ESE 6 10 Thunderstorms FEW039 BKN065 BKN090 77 74     90%   79 29.87 29.85 0    
May 19 23:42 SE 6 8 Light Rain FEW039 BKN070 OVC090 77 75     94%   79 29.87   0    
May 19 22:53 ESE 6 10 Cloudy FEW060 BKN075 OVC100 79 73     82%   82 29.88 29.86      
May 19 21:53 ESE 6 10 Cloudy OVC100 79 73     82%   82 29.85 29.83      
May 19 20:53 ESE 5 10 Clear   80 74     82%   85 29.85 29.83      
May 19 19:53 E 6 10 Partly Cloudy FEW035 SCT048 81 74     79%   86 29.82 29.8      
May 19 18:53 ENE 3 10 Clear CLR 81 74     79%   86 29.83 29.81     0
May 19 17:53 SE 5 10 Partly Cloudy FEW032 SCT065 SCT085 81 74     79%   86 29.83 29.81 0    
May 19 17:22 S 8 10 Mostly Cloudy SCT041 BKN049 BKN060 86 72     63%   92 29.84        
May 19 16:53 S 8 10 Clear CLR 86 72     63%   92 29.85 29.83      
May 19 15:53 S 7 10 Mostly Cloudy FEW046 FEW060 BKN100 87 72     61%   94 29.87 29.84      
May 19 14:53 S 10 10 Partly Cloudy FEW036 FEW048 SCT095 86 71     61%   92 29.88 29.86      
May 19 13:53 S 9 10 Mostly Cloudy FEW030 SCT046 BKN080 85 72     65%   91 29.9 29.88      
May 19 12:53 S 9 10 Partly Cloudy FEW030 FEW050 SCT080 83 72     70%   88 29.92 29.9      
May 19 11:53 SSE 9 10 Mostly Cloudy SCT023 BKN035 BKN065 81 71     72%   85 29.94 29.92      
May 19 11:09 SSW 10 10 Mostly Cloudy FEW020 SCT027 BKN036 81 72     74%   85 29.95        
May 19 10:53 SSW 8 10 Mostly Cloudy SCT020 BKN027 BKN035 80 72     76%   84 29.94 29.92      
May 19 09:53 SE 5 10 Cloudy BKN018 OVC024 77 71     82%   78 29.94 29.92      
May 19 09:41 6 10 Mostly Cloudy BKN016 BKN022 77 71     82%   78 29.94        
May 19 08:53 ESE 8 10 Mostly Cloudy SCT019 BKN060 75 69     82%   76 29.95 29.93      
May 19 08:33 ESE 6 10 Mostly Cloudy FEW019 SCT026 BKN042 74 67     79%   75 29.95        
May 19 07:53 ESE 5 10 Cloudy SCT019 BKN025 OVC035 72 64     76%   72 29.95 29.93      
May 19 06:53 E 9 10 Cloudy OVC024 71 62     73%   71 29.93 29.91      
May 19 05:53 E 7 10 Mostly Cloudy BKN026 BKN033 71 62     73%   71 29.92 29.9      
May 19 05:01 E 8 10 Cloudy BKN029 OVC039 72 62     71%   72 29.9        
May 19 04:53 E 10 10 Cloudy SCT029 BKN035 OVC044 72 63     73%   72 29.9 29.88      
May 19 04:09 3 10 Clear   75 67     76%   76 29.91        
May 19 04:02 Calm 10 Clear   76 69     79%   77 29.91        
May 19 03:53 ESE 6 10 Clear   76 69     79%   77 29.91 29.89      
May 19 03:46 SSE 3 10 Clear   75 70     84%   76 29.91        
May 19 03:39 E 3 10 Cloudy BKN029 BKN040 OVC080 77 69     77%   78 29.92        
May 19 02:53 Calm 10 Mostly Cloudy FEW036 BKN085 77 69     77%   78 29.93 29.91      
May 19 01:53 SW 6 10 Clear CLR 78 69     74%   79 29.91 29.89      
May 19 00:53 S 6 10 Clear CLR 78 70     76%   79 29.89 29.87      
May 18 23:53 S 6 10 Clear CLR 78 71     79%   79 29.89 29.87      
May 18 22:53 S 9 10 Partly Cloudy SCT100 79 71     77%   82 29.88 29.86      
May 18 21:53 SE 5 10 Mostly Cloudy FEW060 BKN090 79 71     77%   82 29.87 29.84      
May 18 20:53 SE 7 10 Clear CLR 80 72     76%   84 29.83 29.81      
May 18 19:53 SE 8 10 Clear CLR 81 71     72%   85 29.82 29.8      
May 18 18:53 SE 10 10 Partly Cloudy FEW040 SCT050 SCT065 83 71     67%   88 29.83 29.8      
May 18 17:53 SSE 10 10 Partly Cloudy SCT041 SCT055 84 71     65%   89 29.83 29.8      
May 18 16:53 SSE 10 10 Partly Cloudy SCT038 SCT050 85 71     63%   90 29.85 29.82      
May 18 15:53 S 8 10 Partly Cloudy FEW036 SCT049 84 71     65%   89 29.86 29.84      
May 18 14:53 SSE 11 10 Partly Cloudy SCT039 85 71     63%   90 29.88 29.85      
May 18 13:53 S 8 10 Mostly Cloudy SCT030 SCT042 BKN050 82 71     69%   86 29.89 29.87      
May 18 12:53 S 7 10 Partly Cloudy FEW021 SCT026 82 72     72%   87 29.91 29.89      
May 18 11:53 S 13 10 Cloudy BKN021 OVC029 78 71     79%   79 29.93 29.91      
May 18 10:53 S 8 10 Cloudy OVC015 77 72     84%   78 29.92 29.9      
May 18 09:53 6 10 Cloudy BKN011 OVC031 75 71     88%   76 29.92 29.9      
May 18 08:53 S 3 10 Cloudy OVC010 73 70     90%   74 29.91 29.89      
May 18 08:34 S 9 9 Cloudy OVC009 73 70     90%   74 29.9        
May 18 07:53 S 7 9 Cloudy OVC010 72 70     93%   73 29.89 29.88      
May 18 06:53 S 7 10 Cloudy OVC011 72 70     93%   73 29.88 29.86     0
May 18 06:03 S 6 10 Cloudy OVC013 73 70     90%   74 29.87        
May 18 05:53 S 6 10 Cloudy OVC015 73 70     90%   74 29.87 29.85      
May 18 04:53 S 6 10 Cloudy BKN017 OVC023 73 70     90%   74 29.87 29.85 0    
May 18 04:14 S 7 10 Cloudy SCT018 BKN025 OVC029 73 69     87%   74 29.86        
May 18 03:53 7 10 Cloudy OVC030 74 69     85%   75 29.86 29.84      
May 18 02:53 S 7 10 Cloudy FEW030 OVC039 74 70     87%   75 29.85 29.83      
May 18 01:53 3 10 Cloudy OVC034 74 71     91%   75 29.85 29.83      
May 18 00:53 SSE 6 10 Cloudy OVC044 76 70     82%   77 29.85 29.82      
May 17 23:53 Calm 10 Clear   75 71     88%   76 29.84 29.82      
May 17 22:53 S 5 10 Cloudy OVC042 74 71     91%   75 29.83 29.81      
May 17 21:53 3 10 Cloudy BKN043 OVC049 74 71     91%   75 29.83 29.81      
May 17 20:53 S 3 10 Cloudy FEW015 OVC037 74 71     91%   75 29.81 29.79      
May 17 20:40 Calm 10 Cloudy FEW015 BKN030 OVC039 74 71     91%   75 29.81        
May 17 20:23 S 7 10 Cloudy FEW015 BKN022 OVC028 74 71     91%   75 29.81        
May 17 19:53 SSW 9 10 Cloudy BKN034 OVC044 75 70     84%   76 29.8 29.78      
May 17 18:53 SSW 8 10 Cloudy FEW038 BKN048 OVC055 73 71     94%   74 29.8 29.78 0   0
May 17 17:53 S 7 10 Cloudy FEW026 BKN045 OVC050 75 71     88%   76 29.8 29.78      
May 17 16:53 S 5 9 Cloudy FEW036 BKN045 OVC055 75 71     88%   76 29.79 29.78 0    
May 17 15:53 SSW 8 9 Cloudy SCT027 OVC040 76 70     82%   77 29.79 29.77   0  
May 17 14:53 S 7 10 Cloudy FEW030 OVC042 75 70     84%   76 29.79 29.77 0    
May 17 13:53 S 7 10 Cloudy FEW030 BKN038 OVC046 77 68     74%   78 29.79 29.77      
May 17 12:53 S 8 10 Cloudy FEW030 BKN050 OVC055 77 68     74%   78 29.8 29.78      
May 17 12:26 S 8 10 Cloudy BKN031 BKN036 OVC047 77 68     74%   78 29.81        
May 17 12:15 S 8 10 Cloudy BKN029 OVC038 77 67     71%   78 29.81        
May 17 11:53 S 9 10 Cloudy BKN030 OVC036 77 67     71%   78 29.81 29.79      
May 17 11:35 SSW 10 10 Cloudy SCT030 OVC036 76 67     74%   77 29.81        
May 17 10:53 S 11 10 Cloudy BKN028 BKN035 OVC070 76 66     71%   77 29.81 29.79      
May 17 10:14 S 9 10 Mostly Cloudy SCT021 BKN029 BKN070 75 67     76%   76 29.8        
May 17 09:53 SSE 11 10 Partly Cloudy SCT022 74 67     79%   75 29.8 29.78      
May 17 09:42 S 10 10 Mostly Cloudy BKN022 74 67     79%   75 29.81        
May 17 09:08 S 10 10 Partly Cloudy SCT019 73 66     79%   74 29.83        
May 17 08:53 S 8 10 Mostly Cloudy BKN020 BKN039 72 66     82%   73 29.84 29.82      
May 17 08:39 SSE 7 10 Mostly Cloudy BKN020 73 66     79%   74 29.86        
May 17 07:53 S 9 10 Mostly Clear FEW020 71 65     81%   72 29.85 29.83      
May 17 06:53 S 7 10 Partly Cloudy SCT060 69 64     84%     29.86 29.84      
May 17 06:16 SSW 11 10 Cloudy SCT025 OVC055 70 64     81%     29.87        
May 17 05:53 SW 7 10 Cloudy FEW022 BKN027 OVC050 70 64     81%     29.87 29.85      
May 17 04:53 SSW 10 10 Mostly Cloudy FEW024 BKN033 71 63     76%   71 29.8 29.78      
May 17 03:53 SSE 10 10 Partly Cloudy SCT026 70 63     78%     29.77 29.74      
May 17 02:53 S 11 10 Clear CLR 71 63     76%   71 29.77 29.75      
May 17 01:53 SSE 9 10 Clear CLR 72 63     73%   72 29.79 29.77      
May 17 00:53 S 9 10 Clear CLR 74 63     69%   74 29.79 29.77      
May 16 23:53 SSE 8 10 Clear CLR 74 64     71%   74 29.81 29.78      
May 16 22:53 SSE 9 10 Clear CLR 75 63     66%   75 29.81 29.79      
May 16 21:53 SSE 11 10 Clear CLR 77 63     62%   77 29.82 29.79      
May 16 20:53 SSE 8 10 Clear CLR 78 63     60%   78 29.81 29.79      
May 16 19:53 SSE 9 10 Clear CLR 80 63     56%   81 29.8 29.78      
May 16 18:53 SSE 11 10 Clear CLR 82 61     49%   83 29.82 29.8      
May 16 17:53 S 11 10 Mostly Clear FEW055 84 61     46%   84 29.83 29.81      
May 16 16:53 S 13 10 Clear CLR 84 61     46%   84 29.85 29.83      
May 16 15:53 SSW 11 10 Clear CLR 85 61     45%   85 29.87 29.85      
May 16 14:53 S 9 10 Clear CLR 84 60     44%   84 29.89 29.87      
May 16 13:53 S 9 10 Clear CLR 83 61     48%   83 29.91 29.89      
May 16 12:53 S 11 10 Mostly Clear FEW049 82 60     47%   82 29.94 29.93      
May 16 11:53 SSW 10 10 Clear CLR 81 60     49%   82 29.96 29.94      
May 16 10:53 SSW 13 10 Clear CLR 79 59     50%   79 29.96 29.95      
May 16 09:53 SW 9 10 Clear CLR 77 60     56%   77 29.97 29.95      
May 16 08:53 SW 7 10 Clear CLR 74 61     64%   74 29.97 29.95      
May 16 07:53 SSW 3 10 Mostly Cloudy BKN047 71 62     73%   71 29.96 29.94      
May 16 06:53 S 5 10 Clear CLR 70 62     76%     29.95 29.93      
May 16 05:53 S 6 10 Clear CLR 69 61     75%     29.93 29.91      
May 16 04:53 SE 3 10 Clear CLR 68 61     78%     29.93 29.91      
May 16 03:53 S 6 10 Partly Cloudy SCT048 71 62     73%   71 29.92 29.9      
May 16 02:53 Calm 10 Mostly Clear FEW049 68 61     78%     29.92 29.9      
May 16 01:53 S 3 10 Clear CLR 71 61     70%   71 29.91 29.89      
May 16 00:53 ESE 3 10 Clear CLR 67 61     81%     29.92 29.9      
May 15 23:53 E 3 10 Clear CLR 67 62     84%     29.92 29.9      
May 15 22:53 ENE 5 10 Clear CLR 66 62     87%     29.93 29.91      
May 15 21:53 Calm 10 Mostly Clear FEW048 72 63     73%   72 29.93 29.91      
May 15 20:53 Calm 10 Clear CLR 76 63     64%   76 29.93 29.91      
May 15 19:53 SSE 6 10 Clear CLR 79 63     58%   79 29.92 29.9      
May 15 18:53 SE 8 10 Clear   82 63     53%   83 29.92 29.9      
May 15 17:53   10 Clear CLR 83 62     49%   84 29.92 29.9      
May 15 16:53 SSE 6 10 Clear CLR 84 60     44%   84 29.93 29.91      
May 15 15:53 S 7 10 Clear CLR 83 62     49%   84 29.94 29.92      
May 15 14:53 7 10 Mostly Clear FEW049 84 62     48%   85 29.95 29.94      
May 15 13:53 SSW 6 10 Mostly Clear FEW048 83 61     48%   83 29.97 29.96      
May 15 12:53 S 6 10 Clear CLR 81 61     51%   82 29.99 29.97      
May 15 11:53 SSW 8 10 Clear CLR 80 62     54%   81 30 29.99      
May 15 10:53 S 5 10 Clear CLR 78 62     58%   78 30.01 29.99      
May 15 09:53 SSW 5 10 Clear CLR 74 62     66%   74 30.02 30      
May 15 08:53 Calm 10 Clear CLR 69 61     75%     30.01 29.99      
May 15 07:53 WSW 3 10 Clear CLR 65 61     87%     29.99 29.97      
May 15 06:53 ENE 3 10 Clear CLR 57 56     96%     29.97 29.96      
May 15 05:53 Calm 10 Clear CLR 58 55     90%     29.97 29.95      
May 15 04:53 Calm 10 Clear CLR 57 55     93%     29.96 29.95      
May 15 03:53 Calm 10 Clear CLR 57 56     96%     29.96 29.95      
May 15 02:53 Calm 10 Clear CLR 58 56     93%     29.96 29.94      
May 15 01:53 Calm 10 Clear CLR 60 57     90%     29.96 29.95      
May 14 23:53 Calm 10 Clear CLR 61 58     90%     29.94 29.93      
May 14 22:53 Calm 10 Clear CLR 63 57     81%     29.95 29.93      
May 14 21:53 ENE 3 10 Clear CLR 65 57     76%     29.94 29.92      
May 14 19:53 Calm 10 Clear CLR 77 57     50%   77 29.92 29.91      
May 14 18:53 S 5 10 Clear CLR 79 55     44%   79 29.92 29.91      
May 14 17:53 S 5 10 Clear CLR 80 54     41%   80 29.93 29.91      
May 14 16:53 SSW 5 10 Clear CLR 81 55     41%   81 29.94 29.92      
May 14 15:53 5 10 Clear CLR 81 55     41%   81 29.95 29.93      
May 14 14:53 3 10 Clear CLR 80 55     42%   80 29.96 29.95      
May 14 13:53 Calm 10 Clear CLR 77 54     45%   77 29.98 29.97      
May 14 12:53 5 10 Clear CLR 77 55     47%   77 30 29.99      
May 14 11:53 3 10 Clear CLR 75 55     50%   75 30.02 30      
May 14 10:53 3 10 Clear CLR 73 56     55%   73 30.03 30.01      
May 14 09:53 Calm 10 Clear CLR 70 57     63%     30.03 30.02      
May 14 08:53 Calm 10 Clear CLR 63 56     78%     30.03 30.02      
May 14 07:53 Calm 10 Clear CLR 58 54     87%     30.03 30.02      
May 14 06:53 Calm 10 Clear CLR 52 51     97%     30.02 30.01      
May 14 05:53 Calm 10 Clear CLR 52 51     97%     30 29.98      
May 14 04:53 NNW 3 10 Clear CLR 52 51     97%     29.98 29.96      
May 14 03:53 Calm 10 Clear CLR 53 52     96%     29.96 29.95      
May 14 02:53 Calm 10 Clear CLR 54 52     93%     29.95 29.93      
May 14 01:53 Calm 10 Clear CLR 55 53     93%     29.94 29.93      
May 14 00:53 NNW 3 10 Clear CLR 56 54     93%     29.96 29.94      
May 13 23:53 Calm 10 Clear CLR 58 55     90%     29.95 29.94      
May 13 22:53 Calm 10 Clear CLR 61 54     78%     29.94 29.93      
May 13 21:53 NE 5 10 Clear CLR 62 53     72%     29.94 29.92      
May 13 20:53 ENE 5 10 Clear CLR 65 55     70%     29.93 29.91      
May 13 19:53 E 3 10 Clear CLR 71 54     55%   70 29.92 29.91      
May 13 18:53 E 8 10 Clear CLR 75 52     45%   74 29.92 29.91      
May 13 17:53 E 7 10 Clear CLR 77 49     37%   76 29.93 29.91